JAL220 RJBB-RJTT

Flight info

Callsign JAL220
Flight time N/A
Altitude 33000
Route SOVRI UPRAL YAGYU SHTLE Y71 XAC
Aircraft B738/M-SDE2E3FGHIRWXY/LB1

Departure

Time N/A
Airport Kansai International Airport (RJBB)

Arrival

Time 2026-05-04 01:33
Airport Tokyo Haneda International Airport (RJTT)
Time Latitude Longitude Altitude Speed Heading
2026-05-04 01:23 35.65468 140.15929 7933 ft 261 kts 346°
2026-05-04 01:23 35.67224 140.15248 7652 ft 256 kts 325°
2026-05-04 01:23 35.68272 140.14059 7419 ft 253 kts 303°
2026-05-04 01:24 35.69327 140.12294 7103 ft 251 kts 307°
2026-05-04 01:24 35.70504 140.10693 6796 ft 250 kts 309°
2026-05-04 01:24 35.71652 140.09094 6490 ft 247 kts 307°
2026-05-04 01:24 35.72752 140.07491 6277 ft 240 kts 306°
2026-05-04 01:25 35.73824 140.05955 6137 ft 231 kts 307°
2026-05-04 01:25 35.74813 140.04553 6006 ft 223 kts 307°
2026-05-04 01:25 35.75831 140.03101 5811 ft 217 kts 307°
2026-05-04 01:25 35.76805 140.01677 5568 ft 216 kts 306°
2026-05-04 01:26 35.77771 140.00259 5331 ft 213 kts 307°
2026-05-04 01:26 35.78569 139.98810 5134 ft 200 kts 286°
2026-05-04 01:26 35.78625 139.97159 4999 ft 183 kts 248°
2026-05-04 01:26 35.77890 139.95937 5023 ft 183 kts 216°
2026-05-04 01:27 35.76812 139.95106 5014 ft 179 kts 217°
2026-05-04 01:27 35.75771 139.94125 4666 ft 197 kts 218°
2026-05-04 01:27 35.74665 139.93143 4288 ft 197 kts 215°
2026-05-04 01:27 35.73548 139.92206 4015 ft 192 kts 215°
2026-05-04 01:28 35.72485 139.91281 3748 ft 187 kts 214°
2026-05-04 01:28 35.71432 139.90356 3493 ft 182 kts 214°
2026-05-04 01:28 35.70402 139.89479 3253 ft 180 kts 217°
2026-05-04 01:28 35.69397 139.88602 3018 ft 180 kts 217°
2026-05-04 01:29 35.68444 139.87770 2791 ft 180 kts 218°
2026-05-04 01:29 35.67715 139.87138 2639 ft 183 kts 215°
2026-05-04 01:29 35.66542 139.86145 2347 ft 178 kts 217°
2026-05-04 01:29 35.65560 139.85307 2138 ft 171 kts 216°
2026-05-04 01:30 35.64671 139.84528 1973 ft 158 kts 219°
2026-05-04 01:30 35.63792 139.83766 1790 ft 147 kts 216°
2026-05-04 01:30 35.62996 139.83090 1536 ft 146 kts 220°
2026-05-04 01:30 35.62127 139.82335 1305 ft 149 kts 220°
2026-05-04 01:31 35.61312 139.81633 1143 ft 145 kts 217°
2026-05-04 01:31 35.60482 139.80934 937 ft 143 kts 214°
2026-05-04 01:31 35.59647 139.80278 810 ft 143 kts 222°
2026-05-04 01:31 35.58826 139.79552 604 ft 147 kts 219°
2026-05-04 01:32 35.58009 139.78807 426 ft 144 kts 222°
2026-05-04 01:32 35.57214 139.78117 213 ft 136 kts 218°
2026-05-04 01:32 35.56445 139.77452 54 ft 132 kts 216°
2026-05-04 01:32 35.55832 139.76927 44 ft 69 kts 217°
2026-05-04 01:33 35.55596 139.76723 44 ft 27 kts 215°
2026-05-04 01:33 35.55449 139.76643 44 ft 20 kts 190°
2026-05-04 01:33 35.55358 139.76625 44 ft 0 kts 191°
2026-05-04 01:34 35.55349 139.76622 44 ft 4 kts 191°
2026-05-04 01:34 35.55296 139.76633 44 ft 11 kts 146°
2026-05-04 01:35 35.55306 139.76743 44 ft 17 kts 38°
2026-05-04 01:35 35.55417 139.76845 44 ft 21 kts 37°
2026-05-04 01:35 35.55519 139.76971 44 ft 21 kts 97°
2026-05-04 01:35 35.55412 139.77069 44 ft 18 kts 151°
2026-05-04 01:36 35.55291 139.77150 44 ft 21 kts 153°
2026-05-04 01:36 35.55164 139.77245 44 ft 17 kts 136°
2026-05-04 01:36 35.55160 139.77345 44 ft 12 kts 60°
2026-05-04 01:36 35.55211 139.77455 44 ft 16 kts 61°
2026-05-04 01:37 35.55274 139.77597 44 ft 21 kts 62°
2026-05-04 01:37 35.55333 139.77750 44 ft 18 kts 103°
2026-05-04 01:37 35.55237 139.77829 44 ft 15 kts 149°
2026-05-04 01:37 35.55145 139.77893 44 ft 14 kts 152°
2026-05-04 01:38 35.55060 139.77954 44 ft 13 kts 150°
2026-05-04 01:38 35.54978 139.78011 44 ft 13 kts 151°
2026-05-04 01:38 35.54898 139.78069 44 ft 14 kts 149°
2026-05-04 01:38 35.54794 139.78143 44 ft 19 kts 149°
2026-05-04 01:39 35.54666 139.78232 44 ft 23 kts 152°
2026-05-04 01:39 35.54510 139.78339 44 ft 25 kts 147°
2026-05-04 01:39 35.54430 139.78407 44 ft 10 kts 127°
2026-05-04 01:39 35.54436 139.78455 44 ft 3 kts 58°
2026-05-04 01:40 35.54448 139.78479 44 ft 3 kts 60°
2026-05-04 01:40 35.54449 139.78482 44 ft 0 kts 60°